When you browse on this site, cookies collect data to enhance your experience and personalize the content and advertising you see.
Visit our Privacy Policy to learn more. By continuing to use the site, you agree to this use of cookies and data.
  • In Hungary
  • List of Countries
  • For 7 days
  • Water Temperature
  • Satellite Maps
  • Weather Map
  • News
  • Weather Widgets
  • user-avatar
    Login

    Hourly Weather Oruro

    Today, 25 April, Thursday

    Time Temperature Precipitation Wind Pressure Humidity
    00:00 +6°C° 0 mm 4 mps 477 mmHg 72%
    01:00 +7°C° 0 mm 3 mps 476 mmHg 74%
    02:00 +7°C° 0 mm 3 mps 476 mmHg 76%
    03:00 +5°C° 0 mm 3 mps 476 mmHg 78%
    04:00 +6°C° 0 mm 2 mps 476 mmHg 80%
    05:00 +6°C° 0 mm 2 mps 475 mmHg 81%
    06:00 +5°C° 0 mm 3 mps 476 mmHg 78%
    07:00 +7°C° 0 mm 3 mps 476 mmHg 75%
    08:00 +7°C° 0 mm 3 mps 477 mmHg 72%
    09:00 +9°C° 0 mm 3 mps 478 mmHg 63%
    10:00 +11°C° 0 mm 4 mps 480 mmHg 53%
    11:00 +13°C° 0 mm 4 mps 481 mmHg 43%
    12:00 +14°C° 0.1 mm 4 mps 481 mmHg 41%
    13:00 +15°C° 0.1 mm 5 mps 481 mmHg 40%
    14:00 +15°C° 0.1 mm 5 mps 480 mmHg 38%
    15:00 +15°C° 0.2 mm 5 mps 480 mmHg 39%
    16:00 +15°C° 0.2 mm 5 mps 480 mmHg 40%
    17:00 +15°C° 0.2 mm 4 mps 479 mmHg 41%
    18:00 +13°C° 0.1 mm 4 mps 479 mmHg 46%
    19:00 +12°C° 0.1 mm 4 mps 479 mmHg 52%
    20:00 +11°C° 0.1 mm 4 mps 478 mmHg 58%
    21:00 +10°C° 0 mm 3 mps 478 mmHg 61%
    22:00 +10°C° 0 mm 3 mps 478 mmHg 64%
    23:00 +9°C° 0 mm 3 mps 478 mmHg 67%

    Tomorrow, 26 April, Friday

    Time Temperature Precipitation Wind Pressure Humidity
    00:00 +9°C° 0 mm 2 mps 478 mmHg 69%
    01:00 +9°C° 0 mm 2 mps 477 mmHg 70%
    02:00 +8°C° 0 mm 2 mps 477 mmHg 72%
    03:00 +8°C° 0 mm 2 mps 477 mmHg 73%
    04:00 +7°C° 0 mm 2 mps 476 mmHg 74%
    05:00 +7°C° 0 mm 2 mps 476 mmHg 75%
    06:00 +7°C° 0 mm 2 mps 476 mmHg 71%
    07:00 +8°C° 0 mm 3 mps 477 mmHg 68%
    08:00 +8°C° 0 mm 3 mps 478 mmHg 64%
    09:00 +10°C° 0 mm 3 mps 479 mmHg 56%
    10:00 +12°C° 0 mm 4 mps 480 mmHg 48%
    11:00 +14°C° 0 mm 5 mps 481 mmHg 40%
    12:00 +14°C° 0.1 mm 5 mps 481 mmHg 38%
    13:00 +15°C° 0.1 mm 5 mps 480 mmHg 37%
    14:00 +16°C° 0.1 mm 6 mps 480 mmHg 36%
    15:00 +15°C° 0.6 mm 6 mps 479 mmHg 39%
    16:00 +14°C° 0.6 mm 6 mps 479 mmHg 42%
    17:00 +14°C° 0.6 mm 5 mps 478 mmHg 45%
    18:00 +13°C° 0.6 mm 5 mps 478 mmHg 48%
    19:00 +12°C° 0.6 mm 5 mps 478 mmHg 52%
    20:00 +11°C° 0.6 mm 4 mps 478 mmHg 56%
    21:00 +10°C° 0 mm 4 mps 478 mmHg 59%
    22:00 +10°C° 0 mm 3 mps 478 mmHg 61%
    23:00 +9°C° 0 mm 3 mps 478 mmHg 64%

    Day after tomorrow, 27 April, Saturday

    Time Temperature Precipitation Wind Pressure Humidity
    00:00 +8°C° 0 mm 2 mps 477 mmHg 65%
    01:00 +7°C° 0 mm 2 mps 477 mmHg 66%
    02:00 +7°C° 0 mm 2 mps 476 mmHg 67%
    03:00 +6°C° 0 mm 2 mps 475 mmHg 68%
    04:00 +5°C° 0 mm 2 mps 475 mmHg 69%
    05:00 +6°C° 0 mm 1 mps 474 mmHg 70%
    06:00 +5°C° 0 mm 2 mps 475 mmHg 66%
    07:00 +6°C° 0 mm 2 mps 476 mmHg 61%
    08:00 +5°C° 0 mm 3 mps 477 mmHg 57%
    09:00 +8°C° 0 mm 3 mps 478 mmHg 47%
    10:00 +10°C° 0 mm 4 mps 479 mmHg 36%
    11:00 +12°C° 0 mm 4 mps 480 mmHg 26%
    12:00 +13°C° 0 mm 4 mps 480 mmHg 23%
    13:00 +14°C° 0 mm 4 mps 480 mmHg 19%
    14:00 +15°C° 0 mm 4 mps 480 mmHg 16%
    15:00 +15°C° 0 mm 4 mps 479 mmHg 15%
    16:00 +16°C° 0 mm 3 mps 479 mmHg 15%
    17:00 +16°C° 0 mm 3 mps 479 mmHg 14%
    18:00 +14°C° 0 mm 3 mps 478 mmHg 18%
    19:00 +12°C° 0 mm 3 mps 477 mmHg 22%
    20:00 +10°C° 0 mm 2 mps 477 mmHg 26%
    21:00 +9°C° 0 mm 3 mps 477 mmHg 33%
    22:00 +8°C° 0 mm 3 mps 476 mmHg 41%
    23:00 +7°C° 0 mm 3 mps 476 mmHg 49%

    28 April, Sunday

    Time Temperature Precipitation Wind Pressure Humidity
    00:00 +7°C° 0 mm 3 mps 476 mmHg 57%
    01:00 +5°C° 0 mm 3 mps 475 mmHg 66%
    02:00 +5°C° 0 mm 3 mps 475 mmHg 75%
    03:00 +5°C° 0 mm 2 mps 474 mmHg 76%
    04:00 +5°C° 0 mm 2 mps 474 mmHg 77%
    05:00 +4°C° 0 mm 2 mps 474 mmHg 79%
    06:00 +6°C° 0 mm 1 mps 475 mmHg 74%
    07:00 +7°C° 0 mm 1 mps 476 mmHg 69%
    08:00 +7°C° 0 mm 1 mps 477 mmHg 64%
    09:00 +9°C° 0 mm 1 mps 478 mmHg 53%
    10:00 +11°C° 0 mm 1 mps 479 mmHg 42%
    11:00 +13°C° 0 mm 1 mps 480 mmHg 31%
    12:00 +14°C° 0 mm 1 mps 480 mmHg 27%
    13:00 +15°C° 0 mm 1 mps 479 mmHg 22%
    14:00 +15°C° 0 mm 0 mps 479 mmHg 18%
    15:00 +16°C° 0 mm 1 mps 479 mmHg 18%
    16:00 +16°C° 0 mm 1 mps 479 mmHg 17%
    17:00 +17°C° 0 mm 2 mps 479 mmHg 17%
    18:00 +15°C° 0 mm 2 mps 479 mmHg 21%
    19:00 +12°C° 0 mm 3 mps 478 mmHg 25%
    20:00 +11°C° 0 mm 3 mps 477 mmHg 30%
    21:00 +10°C° 0 mm 3 mps 477 mmHg 35%
    22:00 +9°C° 0 mm 3 mps 477 mmHg 40%
    23:00 +8°C° 0 mm 3 mps 476 mmHg 46%

    29 April, Monday

    Time Temperature Precipitation Wind Pressure Humidity
    00:00 +8°C° 0 mm 3 mps 476 mmHg 47%
    01:00 +7°C° 0 mm 3 mps 475 mmHg 48%
    02:00 +5°C° 0 mm 3 mps 475 mmHg 50%
    03:00 +6°C° 0 mm 2 mps 475 mmHg 52%
    04:00 +5°C° 0 mm 2 mps 474 mmHg 55%
    05:00 +5°C° 0 mm 2 mps 474 mmHg 57%
    06:00 +6°C° 0 mm 2 mps 475 mmHg 57%
    07:00 +6°C° 0 mm 2 mps 475 mmHg 57%
    08:00 +7°C° 0 mm 2 mps 476 mmHg 57%
    09:00 +9°C° 0 mm 3 mps 477 mmHg 49%
    10:00 +11°C° 0 mm 3 mps 478 mmHg 41%
    11:00 +13°C° 0 mm 3 mps 479 mmHg 32%
    12:00 +15°C° 0 mm 2 mps 479 mmHg 29%
    13:00 +16°C° 0 mm 2 mps 479 mmHg 25%
    14:00 +17°C° 0 mm 2 mps 479 mmHg 21%
    15:00 +17°C° 0 mm 2 mps 479 mmHg 20%
    16:00 +17°C° 0 mm 2 mps 478 mmHg 19%
    17:00 +17°C° 0 mm 2 mps 478 mmHg 19%
    18:00 +15°C° 0 mm 2 mps 478 mmHg 24%
    19:00 +13°C° 0 mm 3 mps 477 mmHg 30%
    20:00 +12°C° 0 mm 3 mps 477 mmHg 36%
    21:00 +11°C° 0 mm 3 mps 477 mmHg 44%
    22:00 +10°C° 0 mm 3 mps 476 mmHg 52%
    23:00 +9°C° 0 mm 3 mps 476 mmHg 61%

    30 April, Tuesday

    Time Temperature Precipitation Wind Pressure Humidity
    00:00 +8°C° 0 mm 3 mps 475 mmHg 62%
    01:00 +7°C° 0 mm 3 mps 475 mmHg 64%
    02:00 +7°C° 0 mm 3 mps 474 mmHg 66%
    03:00 +5°C° 0 mm 3 mps 474 mmHg 68%
    04:00 +5°C° 0 mm 3 mps 474 mmHg 70%
    05:00 +5°C° 0 mm 3 mps 474 mmHg 72%
    06:00 +6°C° 0 mm 2 mps 475 mmHg 69%
    07:00 +7°C° 0 mm 2 mps 475 mmHg 66%
    08:00 +7°C° 0 mm 2 mps 476 mmHg 63%
    09:00 +9°C° 0 mm 2 mps 477 mmHg 55%
    10:00 +11°C° 0 mm 3 mps 478 mmHg 47%
    11:00 +13°C° 0 mm 3 mps 479 mmHg 38%
    12:00 +14°C° 0 mm 3 mps 479 mmHg 35%
    13:00 +16°C° 0 mm 3 mps 479 mmHg 33%
    14:00 +16°C° 0 mm 3 mps 478 mmHg 30%
    15:00 +16°C° 0 mm 3 mps 478 mmHg 31%
    16:00 +15°C° 0 mm 4 mps 478 mmHg 32%
    17:00 +15°C° 0 mm 4 mps 478 mmHg 32%
    18:00 +14°C° 0.1 mm 3 mps 478 mmHg 39%
    19:00 +13°C° 0.1 mm 2 mps 477 mmHg 45%
    20:00 +12°C° 0.1 mm 2 mps 477 mmHg 52%
    21:00 +12°C° 0.1 mm 2 mps 477 mmHg 56%
    22:00 +10°C° 0.1 mm 3 mps 477 mmHg 59%
    23:00 +10°C° 0.1 mm 4 mps 477 mmHg 63%
    Show more